SWR1120 LSGG-EDDM

Flight info

Callsign SWR1120
Flight time 0h 45m
Altitude 30000
Route SOSAL N871 KORED DCT BERSU N871 DITON/N0437F310 DCT NUNRI/N0374F190 T103 BETOS BETOS1A
Aircraft A320/M-SDE3FGHIRWY/LB1

Departure

Time 2026-05-06 14:27
Airport Geneva International Airport (LSGG)

Arrival

Time 2026-05-06 15:12
Airport Munich Airport (EDDM)
Time Latitude Longitude Altitude Speed Heading
2026-05-06 14:11 46.23053 6.10615 1397 ft 0 kts 136°
2026-05-06 14:16 46.23055 6.10613 1397 ft 2 kts 136°
2026-05-06 14:17 46.23065 6.10597 1407 ft 4 kts 133°
2026-05-06 14:17 46.23081 6.10566 1405 ft 4 kts 106°
2026-05-06 14:17 46.23080 6.10534 1405 ft 3 kts 50°
2026-05-06 14:17 46.23078 6.10529 1404 ft 1 kts 46°
2026-05-06 14:19 46.23087 6.10542 1404 ft 8 kts 45°
2026-05-06 14:19 46.23142 6.10623 1399 ft 13 kts 46°
2026-05-06 14:19 46.23212 6.10619 1401 ft 12 kts 315°
2026-05-06 14:20 46.23268 6.10539 1401 ft 11 kts 315°
2026-05-06 14:20 46.23327 6.10540 1400 ft 10 kts 41°
2026-05-06 14:20 46.23408 6.10647 1389 ft 25 kts 39°
2026-05-06 14:20 46.23523 6.10814 1386 ft 22 kts 45°
2026-05-06 14:21 46.23624 6.10964 1383 ft 21 kts 45°
2026-05-06 14:21 46.23723 6.11109 1381 ft 20 kts 46°
2026-05-06 14:21 46.23818 6.11246 1379 ft 19 kts 46°
2026-05-06 14:21 46.23909 6.11380 1378 ft 18 kts 45°
2026-05-06 14:22 46.24001 6.11514 1378 ft 21 kts 45°
2026-05-06 14:22 46.24100 6.11661 1376 ft 20 kts 46°
2026-05-06 14:22 46.24196 6.11803 1374 ft 19 kts 45°
2026-05-06 14:22 46.24287 6.11936 1373 ft 18 kts 45°
2026-05-06 14:23 46.24392 6.12088 1372 ft 25 kts 44°
2026-05-06 14:23 46.24512 6.12265 1371 ft 24 kts 45°
2026-05-06 14:23 46.24631 6.12440 1370 ft 25 kts 45°
2026-05-06 14:23 46.24754 6.12620 1369 ft 26 kts 44°
2026-05-06 14:24 46.24911 6.12718 1369 ft 16 kts 17°
2026-05-06 14:24 46.24920 6.12722 1368 ft 0 kts 15°
2026-05-06 14:25 46.24921 6.12722 1368 ft 2 kts 16°
2026-05-06 14:25 46.24988 6.12698 1369 ft 15 kts 305°
2026-05-06 14:25 46.24944 6.12569 1369 ft 17 kts 225°
2026-05-06 14:26 46.24863 6.12449 1371 ft 17 kts 225°
2026-05-06 14:26 46.24802 6.12359 1371 ft 13 kts 225°
2026-05-06 14:26 46.24652 6.12141 1374 ft 64 kts 225°
2026-05-06 14:26 46.24174 6.11439 1373 ft 128 kts 225°
2026-05-06 14:27 46.23444 6.10394 1632 ft 155 kts 222°
2026-05-06 14:27 46.22685 6.09295 2406 ft 154 kts 225°
2026-05-06 14:27 46.21908 6.08153 3021 ft 169 kts 226°
2026-05-06 14:27 46.21213 6.06690 3502 ft 187 kts 257°
2026-05-06 14:28 46.21443 6.04831 4187 ft 199 kts 301°
2026-05-06 14:28 46.22566 6.03665 4914 ft 208 kts 346°
2026-05-06 14:28 46.24009 6.03870 5611 ft 214 kts 17°
2026-05-06 14:28 46.25399 6.04649 6321 ft 216 kts 21°
2026-05-06 14:29 46.26764 6.05589 6945 ft 220 kts 32°
2026-05-06 14:29 46.27951 6.07086 7338 ft 238 kts 44°
2026-05-06 14:29 46.29190 6.08829 7622 ft 263 kts 43°
2026-05-06 14:29 46.30578 6.10740 8074 ft 285 kts 43°
2026-05-06 14:30 46.32051 6.12749 8787 ft 295 kts 42°
2026-05-06 14:30 46.33557 6.14788 9631 ft 302 kts 42°
2026-05-06 14:30 46.35120 6.16891 10247 ft 316 kts 42°
2026-05-06 14:30 46.36801 6.19133 10542 ft 340 kts 41°
2026-05-06 14:31 46.38601 6.21488 10996 ft 355 kts 41°
2026-05-06 14:31 46.40455 6.23899 11733 ft 361 kts 40°
2026-05-06 14:31 46.42332 6.26350 12465 ft 366 kts 40°
2026-05-06 14:31 46.44232 6.28865 13202 ft 371 kts 41°
2026-05-06 14:32 46.46136 6.31417 13962 ft 375 kts 41°
2026-05-06 14:32 46.48054 6.34002 14611 ft 380 kts 41°
2026-05-06 14:32 46.50002 6.36624 15296 ft 383 kts 42°
2026-05-06 14:32 46.51968 6.39262 15982 ft 386 kts 42°
2026-05-06 14:33 46.53826 6.42114 16614 ft 391 kts 52°
2026-05-06 14:33 46.55265 6.45475 17290 ft 393 kts 65°
2026-05-06 14:33 46.56215 6.49198 17954 ft 395 kts 78°
2026-05-06 14:33 46.56637 6.53132 18600 ft 394 kts 90°
2026-05-06 14:34 46.56599 6.57106 19216 ft 394 kts 95°
2026-05-06 14:34 46.56502 6.61036 19836 ft 396 kts 95°
2026-05-06 14:34 46.56401 6.65049 20461 ft 399 kts 95°
2026-05-06 14:34 46.56299 6.69095 21083 ft 401 kts 95°
2026-05-06 14:35 46.56195 6.73151 21706 ft 403 kts 96°
2026-05-06 14:35 46.56090 6.77231 22287 ft 406 kts 96°
2026-05-06 14:35 46.56028 6.81347 22860 ft 410 kts 91°
2026-05-06 14:35 46.56385 6.85484 23410 ft 417 kts 81°
2026-05-06 14:36 46.57256 6.89536 23852 ft 424 kts 70°
2026-05-06 14:36 46.58638 6.93353 24272 ft 431 kts 59°
2026-05-06 14:36 46.60470 6.96840 24637 ft 437 kts 53°
2026-05-06 14:36 46.62398 7.00282 24987 ft 441 kts 53°
2026-05-06 14:37 46.64343 7.03768 25340 ft 445 kts 53°
2026-05-06 14:37 46.66302 7.07298 25674 ft 450 kts 53°
2026-05-06 14:37 46.68269 7.10853 26013 ft 454 kts 53°
2026-05-06 14:37 46.70254 7.14449 26341 ft 458 kts 53°
2026-05-06 14:38 46.72261 7.18092 26673 ft 462 kts 53°
2026-05-06 14:38 46.74275 7.21759 27003 ft 466 kts 53°
2026-05-06 14:38 46.76300 7.25452 27378 ft 469 kts 53°
2026-05-06 14:38 46.78352 7.29190 27713 ft 472 kts 53°
2026-05-06 14:39 46.80418 7.32951 28045 ft 476 kts 53°
2026-05-06 14:39 46.82495 7.36733 28273 ft 481 kts 53°
2026-05-06 14:39 46.84606 7.40582 28511 ft 487 kts 53°
2026-05-06 14:39 46.86730 7.44465 28786 ft 491 kts 53°
2026-05-06 14:40 46.88867 7.48386 29055 ft 495 kts 54°
2026-05-06 14:40 46.91016 7.52335 29309 ft 499 kts 54°
2026-05-06 14:40 46.93182 7.56328 29585 ft 502 kts 53°
2026-05-06 14:40 46.95352 7.60334 29858 ft 503 kts 53°
2026-05-06 14:41 46.99636 7.68247 29901 ft 489 kts 54°
2026-05-06 14:41 47.03822 7.75994 29902 ft 487 kts 54°
2026-05-06 14:42 47.08023 7.83798 29899 ft 487 kts 54°
2026-05-06 14:42 47.12241 7.91661 29897 ft 486 kts 53°
2026-05-06 14:43 47.15959 7.99739 29881 ft 479 kts 60°
2026-05-06 14:43 47.19512 8.08080 29878 ft 478 kts 60°
2026-05-06 14:44 47.23017 8.16307 29873 ft 477 kts 60°
2026-05-06 14:45 47.28286 8.28736 29870 ft 477 kts 60°
2026-05-06 14:45 47.31158 8.37475 29859 ft 472 kts 76°
2026-05-06 14:46 47.33188 8.46696 29871 ft 472 kts 76°
2026-05-06 14:46 47.35219 8.55893 29876 ft 472 kts 76°
2026-05-06 14:47 47.37246 8.65100 29873 ft 471 kts 76°
2026-05-06 14:47 47.39260 8.74296 29870 ft 471 kts 76°
2026-05-06 14:48 47.41277 8.83551 29881 ft 476 kts 77°
2026-05-06 14:48 47.43295 8.92866 29871 ft 476 kts 77°
2026-05-06 14:49 47.45302 9.02186 29869 ft 476 kts 77°
2026-05-06 14:49 47.47302 9.11486 29857 ft 475 kts 77°
2026-05-06 14:50 47.49288 9.20775 29841 ft 474 kts 77°
2026-05-06 14:50 47.51266 9.30092 29802 ft 475 kts 77°
2026-05-06 14:51 47.53250 9.39434 29830 ft 476 kts 77°
2026-05-06 14:51 47.55230 9.48796 29838 ft 477 kts 77°
2026-05-06 14:52 47.57192 9.58153 29841 ft 477 kts 77°
2026-05-06 14:52 47.58430 9.67615 29796 ft 467 kts 94°
2026-05-06 14:53 47.58263 9.75634 29851 ft 465 kts 100°
2026-05-06 14:53 47.57822 9.86750 29844 ft 465 kts 100°
2026-05-06 14:54 47.57426 9.96308 29846 ft 465 kts 101°
2026-05-06 14:54 47.57083 10.04323 29845 ft 465 kts 101°
2026-05-06 14:55 47.56675 10.13885 29872 ft 465 kts 100°
2026-05-06 14:55 47.56475 10.18594 29169 ft 463 kts 100°
2026-05-06 14:55 47.56266 10.23417 28383 ft 462 kts 99°
2026-05-06 14:55 47.56057 10.28129 27810 ft 455 kts 99°
2026-05-06 14:56 47.55858 10.32598 27265 ft 450 kts 99°
2026-05-06 14:56 47.55658 10.37080 26710 ft 444 kts 99°
2026-05-06 14:56 47.55453 10.41615 26142 ft 439 kts 99°
2026-05-06 14:56 47.55247 10.46101 25596 ft 434 kts 99°
2026-05-06 14:57 47.55119 10.50591 25044 ft 432 kts 92°
2026-05-06 14:57 47.55491 10.55019 24456 ft 435 kts 81°
2026-05-06 14:57 47.56436 10.59222 23909 ft 436 kts 68°
2026-05-06 14:57 47.57899 10.63137 23425 ft 434 kts 61°
2026-05-06 14:58 47.59407 10.66841 22861 ft 430 kts 61°
2026-05-06 14:58 47.60926 10.70608 22318 ft 426 kts 61°
2026-05-06 14:58 47.62430 10.74366 21811 ft 422 kts 62°
2026-05-06 14:58 47.63920 10.78098 21291 ft 419 kts 62°
2026-05-06 14:59 47.65391 10.81782 20763 ft 416 kts 61°
2026-05-06 14:59 47.67123 10.85192 20283 ft 415 kts 45°
2026-05-06 14:59 47.69466 10.87653 19802 ft 412 kts 27°
2026-05-06 14:59 47.72039 10.89486 19289 ft 410 kts 24°
2026-05-06 15:00 47.74621 10.91281 18797 ft 408 kts 24°
2026-05-06 15:00 47.77176 10.93052 18333 ft 405 kts 24°
2026-05-06 15:00 47.79726 10.94819 17822 ft 402 kts 24°
2026-05-06 15:00 47.82249 10.96571 17306 ft 399 kts 24°
2026-05-06 15:01 47.84752 10.98310 16817 ft 395 kts 24°
2026-05-06 15:01 47.87232 11.00034 16340 ft 392 kts 24°
2026-05-06 15:01 47.89689 11.01744 15882 ft 388 kts 24°
2026-05-06 15:01 47.92128 11.03444 15417 ft 386 kts 24°
2026-05-06 15:02 47.94550 11.05139 14935 ft 384 kts 24°
2026-05-06 15:02 47.96957 11.06825 14486 ft 381 kts 24°
2026-05-06 15:02 47.99348 11.08504 14035 ft 378 kts 24°
2026-05-06 15:02 48.01716 11.10169 13574 ft 375 kts 24°
2026-05-06 15:03 48.04065 11.11827 13058 ft 373 kts 24°
2026-05-06 15:03 48.06400 11.13485 12506 ft 371 kts 24°
2026-05-06 15:03 48.08732 11.15133 11962 ft 369 kts 24°
2026-05-06 15:03 48.11041 11.16756 11430 ft 366 kts 24°
2026-05-06 15:04 48.13347 11.18372 10879 ft 364 kts 24°
2026-05-06 15:04 48.15589 11.19934 10334 ft 355 kts 24°
2026-05-06 15:04 48.17788 11.21453 9810 ft 340 kts 24°
2026-05-06 15:04 48.19895 11.22894 9239 ft 326 kts 24°
2026-05-06 15:05 48.21915 11.24269 8669 ft 314 kts 24°
2026-05-06 15:05 48.23742 11.25910 8130 ft 301 kts 44°
2026-05-06 15:05 48.25100 11.28214 7582 ft 290 kts 53°
2026-05-06 15:05 48.26326 11.30542 7031 ft 282 kts 53°
2026-05-06 15:06 48.27519 11.32825 6493 ft 274 kts 54°
2026-05-06 15:06 48.28677 11.35038 5955 ft 267 kts 53°
2026-05-06 15:06 48.29800 11.37231 5400 ft 263 kts 54°
2026-05-06 15:06 48.30906 11.39456 4869 ft 267 kts 54°
2026-05-06 15:07 48.31766 11.41913 4243 ft 269 kts 79°
2026-05-06 15:07 48.31731 11.44624 4014 ft 250 kts 95°
2026-05-06 15:07 48.31793 11.47072 3981 ft 222 kts 82°
2026-05-06 15:07 48.32004 11.49238 3998 ft 200 kts 82°
2026-05-06 15:08 48.32180 11.51256 4028 ft 192 kts 83°
2026-05-06 15:08 48.32346 11.53250 3989 ft 191 kts 83°
2026-05-06 15:08 48.32499 11.55200 3989 ft 186 kts 84°
2026-05-06 15:08 48.32651 11.57107 3866 ft 180 kts 82°
2026-05-06 15:09 48.32798 11.58959 3621 ft 175 kts 82°
2026-05-06 15:09 48.32940 11.60743 3416 ft 171 kts 82°
2026-05-06 15:09 48.33086 11.62591 3196 ft 181 kts 82°
2026-05-06 15:09 48.33227 11.64385 2963 ft 164 kts 81°
2026-05-06 15:10 48.33355 11.66017 2772 ft 153 kts 81°
2026-05-06 15:10 48.33477 11.67569 2575 ft 146 kts 83°
2026-05-06 15:10 48.33595 11.69078 2365 ft 145 kts 82°
2026-05-06 15:10 48.33714 11.70596 2154 ft 147 kts 81°
2026-05-06 15:11 48.33835 11.72135 1946 ft 148 kts 82°
2026-05-06 15:11 48.33957 11.73673 1709 ft 152 kts 82°
2026-05-06 15:11 48.34075 11.75249 1521 ft 151 kts 82°
2026-05-06 15:11 48.34189 11.76685 1469 ft 121 kts 83°
2026-05-06 15:12 48.34265 11.77671 1460 ft 83 kts 84°
2026-05-06 15:12 48.34324 11.78442 1463 ft 63 kts 83°
2026-05-06 15:12 48.34381 11.79051 1461 ft 53 kts 69°
2026-05-06 15:12 48.34566 11.79397 1464 ft 32 kts 43°
2026-05-06 15:13 48.34633 11.79550 1460 ft 7 kts 53°
2026-05-06 15:13 48.34636 11.79556 1461 ft 0 kts 53°
2026-05-06 15:13 48.34636 11.79557 1461 ft 2 kts 53°
2026-05-06 15:13 48.34661 11.79606 1467 ft 7 kts 54°
2026-05-06 15:14 48.34734 11.79711 1467 ft 11 kts
2026-05-06 15:14 48.34757 11.79713 1467 ft 0 kts
2026-05-06 15:15 48.34762 11.79712 1467 ft 0 kts 354°
2026-05-06 15:16 48.34779 11.79709 1467 ft 9 kts 353°
2026-05-06 15:16 48.34849 11.79696 1465 ft 11 kts 353°
2026-05-06 15:16 48.34936 11.79681 1463 ft 14 kts 353°
2026-05-06 15:17 48.35040 11.79664 1467 ft 16 kts 356°
2026-05-06 15:17 48.35099 11.79744 1462 ft 8 kts 77°
2026-05-06 15:17 48.35105 11.79829 1467 ft 9 kts 84°
2026-05-06 15:17 48.35084 11.79980 1467 ft 21 kts 101°
2026-05-06 15:18 48.35103 11.80204 1464 ft 19 kts 65°
2026-05-06 15:18 48.35180 11.80227 1463 ft 14 kts 352°
2026-05-06 15:18 48.35305 11.80206 1465 ft 18 kts 354°
2026-05-06 15:18 48.35434 11.80167 1467 ft 19 kts 351°
2026-05-06 15:19 48.35484 11.80159 1467 ft 6 kts 353°
2026-05-06 15:19 48.35517 11.80114 1465 ft 8 kts 272°
2026-05-06 15:19 48.35511 11.80035 1461 ft 4 kts 263°
2026-05-06 15:19 48.35511 11.80027 1465 ft 0 kts 263°